International Skating Union - Official Site

ESSENT ISU WORLD DISTANCES CHAMPIONSHIPS 2011
March 10-13, 2011

Draw | Lap Times | Index | Classification

Referee: Hannu  KOIVU  (FIN)
Starter: Åke  FALK  (SWE)
StartTime: EndTime: Air Temp: Ice Temp: Humidity:
15:47 17:39 11℃ -9℃ 37%
Result 5000m Men
Rankings as of Mar 11 2011 7:15PM
Rank: No.: Name: Nation: Time: Behind: Points:
1 119 Bob  de JONG NED NED 6:15.41200m - 19.98 - (19.9)
600m - 49.32 - (29.3)
1000m - 1:19.44 - (30.1)
1400m - 1:49.66 - (30.2)
1800m - 2:19.67 - (30.0)
2200m - 2:49.55 - (29.8)
2600m - 3:19.21 - (29.6)
3000m - 3:48.85 - (29.6)
3400m - 4:18.31 - (29.4)
3800m - 4:47.67 - (29.3)
4200m - 5:16.92 - (29.2)
4600m - 5:46.17 - (29.2)
5000m - 6:15.41 - (29.2)
37.541
2 114 Seung-Hoon  LEE KOR KOR 6:17.45200m - 18.39 - (18.3)
600m - 47.46 - (29.0)
1000m - 1:17.47 - (30.0)
1400m - 1:46.87 - (29.4)
1800m - 2:16.92 - (30.0)
2200m - 2:46.67 - (29.7)
2600m - 3:16.94 - (30.2)
3000m - 3:47.06 - (30.1)
3400m - 4:17.36 - (30.3)
3800m - 4:47.62 - (30.2)
4200m - 5:17.95 - (30.3)
4600m - 5:47.88 - (29.9)
5000m - 6:17.45 - (29.5)
2.04 37.745
3 142 Ivan  SKOBREV RUS RUS 6:17.47200m - 19.15 - (19.1)
600m - 48.63 - (29.4)
1000m - 1:18.45 - (29.8)
1400m - 1:48.54 - (30.1)
1800m - 2:18.58 - (30.0)
2200m - 2:48.62 - (30.0)
2600m - 3:18.84 - (30.2)
3000m - 3:48.69 - (29.8)
3400m - 4:18.42 - (29.7)
3800m - 4:47.62 - (29.2)
4200m - 5:17.28 - (29.6)
4600m - 5:47.07 - (29.7)
5000m - 6:17.47 - (30.4)
2.06 37.747
4 85 Alexis  CONTIN FRA FRA 6:18.85200m - 18.56 - (18.5)
600m - 47.68 - (29.1)
1000m - 1:17.70 - (30.0)
1400m - 1:47.98 - (30.2)
1800m - 2:18.07 - (30.0)
2200m - 2:48.30 - (30.2)
2600m - 3:18.16 - (29.8)
3000m - 3:48.11 - (29.9)
3400m - 4:17.83 - (29.7)
3800m - 4:47.86 - (30.0)
4200m - 5:17.93 - (30.0)
4600m - 5:48.25 - (30.3)
5000m - 6:18.85 - (30.6)
3.44 37.885
5 131 Håvard  BØKKO NOR NOR 6:21.16200m - 18.46 - (18.4)
600m - 47.84 - (29.3)
1000m - 1:17.58 - (29.7)
1400m - 1:47.81 - (30.2)
1800m - 2:17.80 - (29.9)
2200m - 2:47.95 - (30.1)
2600m - 3:18.30 - (30.3)
3000m - 3:48.85 - (30.5)
3400m - 4:19.14 - (30.2)
3800m - 4:49.71 - (30.5)
4200m - 5:20.20 - (30.4)
4600m - 5:50.61 - (30.4)
5000m - 6:21.16 - (30.5)
5.75 38.116
6 153 Jonathan  KUCK USA USA 6:23.84200m - 18.89 - (18.9)
600m - 47.87 - (28.9)
1000m - 1:17.61 - (29.7)
1400m - 1:47.64 - (30.0)
1800m - 2:18.10 - (30.4)
2200m - 2:48.24 - (30.1)
2600m - 3:18.75 - (30.5)
3000m - 3:49.53 - (30.7)
3400m - 4:20.02 - (30.4)
3800m - 4:50.59 - (30.5)
4200m - 5:21.10 - (30.5)
4600m - 5:52.36 - (31.2)
5000m - 6:23.84 - (31.4)
8.43 38.384
7 120 Wouter  OLDE HEUVEL NED NED 6:24.27200m - 18.39 - (18.4)
600m - 47.31 - (28.9)
1000m - 1:17.11 - (29.8)
1400m - 1:47.06 - (29.9)
1800m - 2:17.16 - (30.1)
2200m - 2:47.55 - (30.3)
2600m - 3:18.08 - (30.5)
3000m - 3:48.47 - (30.4)
3400m - 4:18.99 - (30.5)
3800m - 4:49.70 - (30.7)
4200m - 5:20.77 - (31.0)
4600m - 5:52.19 - (31.4)
5000m - 6:24.27 - (32.0)
8.86 38.427
8 136 Shane  DOBBIN NZL NZL 6:25.85200m - 19.31 - (19.3)
600m - 48.86 - (29.5)
1000m - 1:19.13 - (30.2)
1400m - 1:49.75 - (30.6)
1800m - 2:20.59 - (30.8)
2200m - 2:51.25 - (30.6)
2600m - 3:22.05 - (30.8)
3000m - 3:52.71 - (30.6)
3400m - 4:23.04 - (30.3)
3800m - 4:53.54 - (30.5)
4200m - 5:24.01 - (30.4)
4600m - 5:54.56 - (30.5)
5000m - 6:25.85 - (31.2)
10.44 38.585
9 107 Dmitry  BABENKO KAZ KAZ 6:29.35200m - 18.55 - (18.5)
600m - 48.70 - (30.1)
1000m - 1:19.89 - (31.1)
1400m - 1:50.58 - (30.6)
1800m - 2:21.53 - (30.9)
2200m - 2:52.74 - (31.2)
2600m - 3:24.69 - (31.9)
3000m - 3:55.67 - (30.9)
3400m - 4:26.52 - (30.8)
3800m - 4:57.83 - (31.3)
4200m - 5:28.73 - (30.9)
4600m - 5:58.90 - (30.1)
5000m - 6:29.35 - (30.4)
13.94 38.935
10 68 Joshua  LOSE AUS AUS 6:30.09200m - 19.07 - (19.0)
600m - 49.00 - (29.9)
1000m - 1:19.19 - (30.1)
1400m - 1:49.60 - (30.4)
1800m - 2:20.05 - (30.4)
2200m - 2:50.74 - (30.7)
2600m - 3:21.48 - (30.7)
3000m - 3:52.15 - (30.6)
3400m - 4:23.08 - (30.9)
3800m - 4:54.33 - (31.2)
4200m - 5:26.14 - (31.8)
4600m - 5:58.10 - (31.9)
5000m - 6:30.09 - (31.9)
14.68 39.009
11 139 Jan  SZYMANSKI POL POL 6:30.15200m - 18.68 - (18.6)
600m - 48.47 - (29.7)
1000m - 1:18.91 - (30.4)
1400m - 1:49.94 - (31.0)
1800m - 2:20.65 - (30.7)
2200m - 2:51.96 - (31.3)
2600m - 3:23.40 - (31.4)
3000m - 3:54.78 - (31.3)
3400m - 4:25.83 - (31.0)
3800m - 4:57.44 - (31.6)
4200m - 5:28.69 - (31.2)
4600m - 5:59.77 - (31.0)
5000m - 6:30.15 - (30.3)
14.74 39.015
12 89 Patrick  BECKERT GER GER 6:30.52200m - 19.71 - (19.7)
600m - 49.40 - (29.6)
1000m - 1:19.26 - (29.8)
1400m - 1:49.27 - (30.0)
1800m - 2:19.82 - (30.5)
2200m - 2:50.98 - (31.1)
2600m - 3:22.63 - (31.6)
3000m - 3:54.60 - (31.9)
3400m - 4:26.42 - (31.8)
3800m - 4:58.17 - (31.7)
4200m - 5:29.99 - (31.8)
4600m - 6:00.65 - (30.6)
5000m - 6:30.52 - (29.8)
15.11 39.052
13 154 Brian  HANSEN USA USA 6:30.96200m - 19.99 - (20.0)
600m - 50.19 - (30.2)
1000m - 1:20.33 - (30.1)
1400m - 1:51.02 - (30.6)
1800m - 2:21.34 - (30.3)
2200m - 2:52.08 - (30.7)
2600m - 3:22.63 - (30.5)
3000m - 3:53.48 - (30.8)
3400m - 4:24.39 - (30.9)
3800m - 4:55.50 - (31.1)
4200m - 5:26.70 - (31.2)
4600m - 5:58.63 - (31.9)
5000m - 6:30.96 - (32.3)
15.55 39.096
14 135 Øystein  GRØDUM NOR NOR 6:31.22200m - 20.03 - (20.0)
600m - 50.41 - (30.3)
1000m - 1:21.26 - (30.8)
1400m - 1:51.90 - (30.6)
1800m - 2:22.44 - (30.5)
2200m - 2:53.09 - (30.6)
2600m - 3:24.10 - (31.0)
3000m - 3:55.12 - (31.0)
3400m - 4:26.44 - (31.3)
3800m - 4:57.43 - (31.0)
4200m - 5:28.76 - (31.3)
4600m - 5:59.92 - (31.1)
5000m - 6:31.22 - (31.3)
15.81 39.122
15 133 Henrik  CHRISTIANSEN NOR NOR 6:31.68200m - 19.95 - (19.9)
600m - 50.02 - (30.0)
1000m - 1:20.60 - (30.5)
1400m - 1:51.10 - (30.5)
1800m - 2:21.63 - (30.5)
2200m - 2:52.11 - (30.4)
2600m - 3:22.86 - (30.7)
3000m - 3:53.82 - (30.9)
3400m - 4:24.93 - (31.1)
3800m - 4:56.23 - (31.3)
4200m - 5:27.86 - (31.6)
4600m - 5:59.58 - (31.7)
5000m - 6:31.68 - (32.1)
16.27 39.168
16 93 Robert  LEHMANN GER GER 6:31.92200m - 18.81 - (18.8)
600m - 48.82 - (30.0)
1000m - 1:19.41 - (30.5)
1400m - 1:50.22 - (30.8)
1800m - 2:20.91 - (30.6)
2200m - 2:51.86 - (30.9)
2600m - 3:23.01 - (31.1)
3000m - 3:54.19 - (31.1)
3400m - 4:25.55 - (31.3)
3800m - 4:57.13 - (31.5)
4200m - 5:28.70 - (31.5)
4600m - 6:00.34 - (31.6)
5000m - 6:31.92 - (31.5)
16.51 39.192
17 69 Bart  SWINGS BEL BEL 6:32.49200m - 19.49 - (19.5)
600m - 49.22 - (29.7)
1000m - 1:19.76 - (30.5)
1400m - 1:50.85 - (31.0)
1800m - 2:21.91 - (31.0)
2200m - 2:53.07 - (31.1)
2600m - 3:24.36 - (31.2)
3000m - 3:55.38 - (31.0)
3400m - 4:26.47 - (31.0)
3800m - 4:58.02 - (31.5)
4200m - 5:29.40 - (31.3)
4600m - 6:00.93 - (31.5)
5000m - 6:32.49 - (31.5)
17.08 39.249
18 115 Haralds  SILOVS LAT LAT 6:32.95200m - 18.69 - (18.7)
600m - 48.36 - (29.6)
1000m - 1:19.12 - (30.7)
1400m - 1:50.36 - (31.2)
1800m - 2:21.31 - (30.9)
2200m - 2:52.28 - (30.9)
2600m - 3:23.45 - (31.1)
3000m - 3:54.66 - (31.2)
3400m - 4:26.00 - (31.3)
3800m - 4:57.35 - (31.3)
4200m - 5:28.75 - (31.4)
4600m - 6:00.73 - (31.9)
5000m - 6:32.95 - (32.2)
17.54 39.295
19 149 Roger  SCHNEIDER SUI SUI 6:36.83200m - 19.92 - (19.9)
600m - 49.78 - (29.8)
1000m - 1:20.36 - (30.5)
1400m - 1:51.80 - (31.4)
1800m - 2:23.44 - (31.6)
2200m - 2:55.10 - (31.6)
2600m - 3:26.89 - (31.7)
3000m - 3:58.52 - (31.6)
3400m - 4:30.22 - (31.7)
3800m - 5:02.11 - (31.9)
4200m - 5:33.70 - (31.5)
4600m - 6:05.22 - (31.5)
5000m - 6:36.83 - (31.6)
21.42 39.683
20 141 Slawomir  CHMURA POL POL 6:37.28200m - 20.25 - (20.2)
600m - 50.80 - (30.5)
1000m - 1:21.78 - (30.9)
1400m - 1:53.30 - (31.5)
1800m - 2:24.72 - (31.4)
2200m - 2:56.27 - (31.5)
2600m - 3:27.76 - (31.4)
3000m - 3:59.54 - (31.7)
3400m - 4:30.95 - (31.4)
3800m - 5:02.32 - (31.3)
4200m - 5:33.70 - (31.3)
4600m - 6:05.41 - (31.7)
5000m - 6:37.28 - (31.8)
21.87 39.728
21 72 Lucas  MAKOWSKY CAN CAN 6:37.57200m - 18.71 - (18.7)
600m - 49.13 - (30.4)
1000m - 1:19.61 - (30.4)
1400m - 1:50.34 - (30.7)
1800m - 2:20.87 - (30.5)
2200m - 2:51.77 - (30.9)
2600m - 3:23.13 - (31.3)
3000m - 3:54.64 - (31.5)
3400m - 4:26.70 - (32.0)
3800m - 4:59.14 - (32.4)
4200m - 5:31.89 - (32.7)
4600m - 6:04.72 - (32.8)
5000m - 6:37.57 - (32.8)
22.16 39.757
22 100 Luca  STEFANI ITA ITA 6:39.52200m - 19.06 - (19.0)
600m - 50.10 - (31.0)
1000m - 1:21.85 - (31.7)
1400m - 1:53.22 - (31.3)
1800m - 2:24.87 - (31.6)
2200m - 2:56.53 - (31.6)
2600m - 3:28.50 - (31.9)
3000m - 4:00.22 - (31.7)
3400m - 4:32.33 - (32.1)
3800m - 5:04.04 - (31.7)
4200m - 5:35.89 - (31.8)
4600m - 6:07.70 - (31.8)
5000m - 6:39.52 - (31.8)
24.11 39.952
23 95 Alexej  BAUMGÄRTNER GER GER 6:41.91200m - 19.75 - (19.7)
600m - 49.89 - (30.1)
1000m - 1:20.41 - (30.5)
1400m - 1:51.29 - (30.8)
1800m - 2:22.49 - (31.2)
2200m - 2:54.21 - (31.7)
2600m - 3:26.08 - (31.8)
3000m - 3:58.14 - (32.0)
3400m - 4:30.54 - (32.4)
3800m - 5:03.12 - (32.5)
4200m - 5:36.06 - (32.9)
4600m - 6:09.10 - (33.0)
5000m - 6:41.91 - (32.8)
26.50 40.191
24 121 Jan  BLOKHUIJSEN NED NED DQ200m - 18.27 - (18.2)
600m - 47.79 - (29.5)
1000m - 1:17.07 - (29.2)
1400m - 1:46.84 - (29.7)
1800m - 2:16.50 - (29.6)
2200m - 2:46.46 - (29.9)
2600m - 3:16.43 - (29.9)
3000m - 3:46.81 - (30.3)
3400m - 4:17.03 - (30.2)
3800m - 4:47.39 - (30.3)
4200m - 5:17.91 - (30.5)
4600m - 5:48.79 - (30.8)
5000m - 6:19.82 - (31.0)
-